{"data":{"norad_id":32376,"epoch":"2026-05-25T03:21:31.044096Z","epoch_age_seconds":58858,"freshness":"FRESH","line1":"1 32376U 07059A   26145.13994264  .00000229  00000+0  35283-4 0  9995","line2":"2 32376  97.8885 329.0727 0001493  87.8911 272.2473 14.82148579998584","mean_motion":14.82148579,"eccentricity":0.0001493,"inclination_deg":97.8885,"raan_deg":329.0727,"arg_perigee_deg":87.8911,"mean_anomaly_deg":272.2473,"bstar":3.5283e-5,"rev_number":99858,"period_min":97.156251431389,"perigee_km":621.50510661005,"apogee_km":623.59551184058,"semimajor_km":7000.6873092253,"source":"CELESTRAK","updated_at":"2026-05-25T13:38:12.745381Z"}}